Location: Finnegan
(51.1333°N, 112.0833°W)
Time: 08:48:40
(UTC+00:00)

N. Korean satellite - Pass Details

Date: 06 December 2021
Orbit: 446 x 491 km, 97.3° (Epoch: 18 January)

Event Time Altitude Azimuth Distance (km) Brightness Sun altitude
Rises 11:37:34 0° 32° (NNE) 2,467 10.6 -33.2°
Reaches altitude 10° 11:40:48 10° 66° (ENE) 1,583 9.9 -32.7°
Maximum altitude 11:42:04 12° 88° (E) 1,478 9.8 -32.5°
Drops below altitude 10° 11:43:21 10° 111° (ESE) 1,576 9.9 -32.3°
Sets 11:46:32 0° 145° (SE) 2,441 10.5 -31.8°
